This is the latest recevied weather packets stored in our database for station/object K3TLB-13. If no packets are shown the sender has not sent any weather packets the latest 10 day(s).
| Time | Temp. | Humidity | Pressure | Rain* | Wind** | Luminosity | Snow |
|---|---|---|---|---|---|---|---|
| 1777699453 | 10° C | 73% | 1013.7 hPa | 0 mm | - | - | - |
| 1777699215 | 10° C | 73% | 1013.6 hPa | 0 mm | - | - | - |
| 1777699153 | 10° C | 73% | 1013.6 hPa | 0 mm | - | - | - |
| 1777698853 | 10° C | 73% | 1013.6 hPa | 0 mm | - | - | - |
| 1777698553 | 10° C | 73% | 1013.6 hPa | 0 mm | - | - | - |
| 1777698253 | 10° C | 74% | 1013.7 hPa | 0 mm | - | - | - |
| 1777697953 | 10° C | 76% | 1013.8 hPa | 0 mm | - | - | - |
| 1777697653 | 9.44° C | 77% | 1013.7 hPa | 0 mm | - | - | - |
| 1777697354 | 9.44° C | 79% | 1013.8 hPa | 0 mm | - | - | - |
| 1777697053 | 9.44° C | 80% | 1013.7 hPa | 0.25 mm | - | - | - |
| 1777696817 | 9.44° C | 79% | 1013.7 hPa | 0.25 mm | - | - | - |
| 1777696753 | 9.44° C | 79% | 1013.7 hPa | 0.25 mm | - | - | - |
| 1777696454 | 10° C | 78% | 1013.7 hPa | 0.25 mm | - | - | - |
| 1777696153 | 10° C | 78% | 1013.5 hPa | 0.25 mm | - | - | - |
| 1777695853 | 9.44° C | 79% | 1013.6 hPa | 0.25 mm | - | - | - |
| 1777695554 | 9.44° C | 82% | 1013.5 hPa | 0.25 mm | - | - | - |
| 1777695313 | 9.44° C | 82% | 1013.4 hPa | 0.51 mm | - | - | - |
| 1777695253 | 9.44° C | 82% | 1013.4 hPa | 0.51 mm | - | - | - |
| 1777694956 | 9.44° C | 82% | 1013.5 hPa | 0.51 mm | - | - | - |
| 1777694653 | 9.44° C | 80% | 1013.5 hPa | 0.51 mm | - | - | - |
| 1777694354 | 10° C | 79% | 1013.5 hPa | 0.51 mm | - | - | - |
| 1777694054 | 10° C | 79% | 1013.5 hPa | 0.51 mm | - | - | - |
| 1777693753 | 10° C | 79% | 1013.4 hPa | 0.25 mm | - | - | - |
| 1777693510 | 10° C | 78% | 1013.4 hPa | 0.25 mm | - | - | - |
| 1777693453 | 10° C | 78% | 1013.4 hPa | 0.25 mm | - | - | - |
* Rain latest hour (hover to see other rain measurements)
** Current wind speed in m/s (hover to see current wind gust speed)